Regional Weather Roundup
Issued by NWS Northern Indiana

Home | Current Version | Previous Version | Graphics & Text | Print | Product List | Glossary On
Versions: 1 2 3 4 5 6 7 8 9 10 11 12 13 14 15 16 17 18 19 20 21 22 23 24 25 26 27 28 29 30 31 32 33 34 35 36 37 38 39 40 41 42 43 44 45 46 47 48 49 50
000
ASUS43 KIWX 102110
RWRIWX

KIWX WEATHER ROUNDUP
NATIONAL WEATHER SERVICE NORTHERN INDIANA
500 PM EDT THU JUL 10 2014

NOTE: "FAIR" INDICATES FEW OR NO CLOUDS BELOW 12,000 FEET WITH NO
SIGNIFICANT WEATHER AND/OR OBSTRUCTIONS TO VISIBILITY.

* THESE STATIONS ARE NOT UNDER NWS QUALITY CONTROL. THEY ALSO MAY NOT
  REPORT WEATHER SUCH AS PRECIPITATION OR FOG.

INZ001>027-102200-
NORTHERN INDIANA

CITY           SKY/WX    TMP DP  RH WIND       PRES   REMARKS
GARY*          SUNNY     75  54  46 E18       30.17S
VALPARAISO     SUNNY     76  50  40 NE8       30.17F
MICHIGAN CITY* SUNNY     72  48  43 N8        30.18F
LAPORTE*       SUNNY     74  47  38 N8        30.17F
KNOX*          SUNNY     75  51  41 N5        30.15F
SOUTH BEND     SUNNY     77  50  38 NW8       30.17S
GOSHEN         MOSUNNY   76  52  43 E6        30.16F
MONTICELLO*    MOSUNNY   74  54  48 CALM      30.14S
LOGANSPORT*    MOSUNNY   73  50  43 CALM      30.16S
ROCHESTER*     SUNNY     79  50  36 NE6       30.16S
WARSAW*        MOSUNNY   73  52  46 N5        30.16S
ANGOLA*        SUNNY     75  54  46 VRB3      30.16F
FORT WAYNE     MOSUNNY   77  51  40 VRB3      30.15F
HUNTINGTON*    SUNNY     76  53  45 N5        30.15S
PERU/GRISSOM   SUNNY     77  54  45 N5        30.15F
MARION*        MOSUNNY   76  50  40 N5        30.15F

$$
INZ028>050-102200-
CENTRAL INDIANA

CITY           SKY/WX    TMP DP  RH WIND       PRES   REMARKS
LAFAYETTE      MOSUNNY   78  54  43 N7G17     30.14F
KOKOMO*        MOSUNNY   77  52  41 NE9       30.15S
MUNCIE*        MOSUNNY   78  53  41 NE7       30.15S
INDIANAPOLIS   MOSUNNY   78  51  38 NE9       30.12F

$$
MIZ043>046-050>051-056>058-064>065-071>073-077>080-102200-
SOUTHWEST LOWER MICHIGAN

CITY           SKY/WX    TMP DP  RH WIND       PRES   REMARKS
BATTLE CREEK   SUNNY     75  54  47 N6        30.18S
BENTON HARBOR  SUNNY     71  49  45 NW3       30.17F
COLDWATER*     MOSUNNY   75  55  51 NE5       30.16F
HILLSDALE*     MOSUNNY   75  54  48 CALM      30.17S
HOLLAND        SUNNY     75  56  51 NW6       30.18F
GRAND RAPIDS   MOSUNNY   74  51  44 VRB3      30.17F
KALAMAZOO      MOSUNNY   74  51  44 N6        30.17F
STURGIS*         N/A     73  54  49 NE6       30.16F
THREE RIVERS*  PTSUNNY   74  55  50 NE5       30.17S

$$
OHZ001>008-015>018-024>025-102200-
NORTHWEST OHIO

CITY           SKY/WX    TMP DP  RH WIND       PRES   REMARKS
WAUSEON*       FAIR      77  52  41 CALM      30.14S
DEFIANCE       MOSUNNY   77  50  38 VRB3      30.14F
FINDLAY        MOSUNNY   80  53  39 N5        30.12F
TOLEDO EXPRESS PTSUNNY   77  54  44 E5        30.12F
TOLEDO METCALF PTSUNNY   76  57  51 NE9       30.14F
LIMA           MOSUNNY   78  55  44 N8        30.13F

$$
&&



USA.gov is the U.S. government's official web portal to all federal, state and local government web resources and services.